Home > Weather > St. Croix Falls > Past weeks

Flag for U.S.A. Weather for the Past 2 Weeks in St. Croix Falls, Wisconsin, U.S.A.

Now
17 °F

Overcast.


Feels Like: 8 °F
Forecast: -9 / 14 °F
Wind: 6 mph from West

Location: L O Simenstad Municipal Airport

Current Time: Feb 11, 2016 at 3:19:19 PM

Latest Report: Feb 11, 2016 at 2:55 PM


Visibility: 10 mi

Pressure: 30.25 "Hg

Humidity: 45%

Dew point: -1 °F

Location of St. Croix FallsLocation

Historic Weather in St. Croix Falls — Graph

°F

St. Croix Falls Temperature Yesterday

Maximum temperature yesterday: 11 °F (at 3:55 PM)
Minimum temperature yesterday: -2 °F (at 6:55 AM)
Average temperature yesterday: 4 °F

High & Low Weather Summary for the Past Weeks

 TemperatureHumidityPressure
High42 °F (Jan 30, 12:55 PM)100% (Jan 28, 4:35 AM)30.36 "Hg (Jan 28, 4:35 AM)
Low-8 °F (Feb 11, 7:35 AM)44% (Feb 11, 2:15 PM)29.50 "Hg (Jan 30, 1:15 AM)
Average21 °F79%29.93 "Hg
* Reported Jan 27 2:15 PM — Feb 11 2:15 PM, St. Croix Falls, Weather by CustomWeather, © 2016

Note: Actual official high and low records may vary slightly from our data, if they occured in-between our weather recording intervals... More about our weather records

Advertising

St. Croix Falls Weather History for the Previous 24 Hours

 ConditionsComfort  
Time TempWeatherWind HumidityBarometerVisibility
2:15 PM
Thu, Feb 11
16 °FOvercast.5 mph44%30.26 "Hg10 mi
1:55 PM16 °FOvercast.6 mph46%30.27 "Hg10 mi
1:35 PM15 °FOvercast.No wind46%30.28 "Hg10 mi
1:15 PM15 °FOvercast.5 mph47%30.28 "Hg10 mi
12:55 PM15 °FOvercast.3 mph46%30.29 "Hg10 mi
12:35 PM12 °FPartly sunny.No wind49%30.30 "Hg10 mi
12:15 PM13 °FScattered clouds.No wind47%30.32 "Hg10 mi
11:55 AM11 °FScattered clouds.No wind49%30.33 "Hg10 mi
11:15 AM9 °FSunny.No wind53%30.34 "Hg10 mi
10:55 AM7 °FSunny.No wind57%30.34 "Hg10 mi
10:35 AM6 °FSunny.No wind63%30.35 "Hg10 mi
10:15 AM4 °FSunny.No wind65%30.36 "Hg10 mi
9:55 AM3 °FSunny.No wind66%30.35 "Hg10 mi
9:35 AM2 °FSunny.No wind70%30.35 "Hg10 mi
9:15 AM1 °FSunny.No wind72%30.36 "Hg10 mi
8:55 AM-2 °FSunny.No wind77%30.35 "Hg10 mi
8:35 AM-4 °FSunny.No wind79%30.35 "Hg10 mi
8:15 AM-6 °FSunny.No wind80%30.35 "Hg10 mi
7:55 AM-7 °FSunny.No wind80%30.35 "Hg10 mi
7:35 AM-8 °FSunny.No wind80%30.35 "Hg7 mi
7:15 AM-6 °FIce fog.No windN/A30.35 "Hg1 mi
6:55 AM-7 °FClear.No wind84%30.34 "Hg10 mi
6:35 AM-7 °FClear.5 mph84%30.34 "Hg10 mi
6:15 AM-6 °FClear.No windN/A30.34 "Hg10 mi
5:55 AM-6 °FClear.No wind82%30.33 "Hg10 mi
5:35 AM-5 °FClear.No wind83%30.33 "Hg10 mi
5:15 AM-6 °FClear.No wind83%30.33 "Hg10 mi
4:55 AM-5 °FClear.No wind83%30.33 "Hg10 mi
4:35 AM-6 °FClear.No wind80%30.32 "Hg10 mi
4:15 AM-5 °FClear.No wind82%30.32 "Hg10 mi
3:55 AM-5 °FClear.No wind83%30.32 "Hg10 mi
3:15 AM-4 °FClear.No wind83%30.32 "Hg10 mi
2:55 AM-4 °FClear.No wind82%30.31 "Hg10 mi
2:35 AM-3 °FClear.No wind83%30.31 "Hg10 mi
2:15 AM-3 °FClear.No wind84%30.31 "Hg10 mi
1:55 AM-3 °FClear.No wind83%30.31 "Hg10 mi
1:35 AM-3 °FClear.No wind82%30.30 "Hg10 mi
1:15 AM-2 °FClear.No wind84%30.30 "Hg10 mi
12:55 AM-1 °FClear.No wind82%30.31 "Hg10 mi
12:35 AM0 °FClear.No wind78%30.30 "Hg10 mi
12:15 AM0 °FClear.No wind78%30.30 "Hg10 mi
11:35 PM
Wed, Feb 10
2 °FClear.No wind75%30.29 "Hg10 mi
11:15 PM4 °FClear.3 mph72%30.29 "Hg10 mi
10:15 PM6 °FPassing clouds.5 mph69%30.27 "Hg10 mi
9:55 PM7 °FOvercast.No wind67%30.27 "Hg10 mi
9:35 PM8 °FPassing clouds.No wind65%30.26 "Hg10 mi
9:15 PM8 °FPartly cloudy.No wind63%30.26 "Hg10 mi
8:35 PM8 °FPartly cloudy.No wind62%30.26 "Hg10 mi
8:15 PM8 °FPassing clouds.No wind61%30.26 "Hg10 mi
7:35 PM7 °FPassing clouds.3 mph64%30.25 "Hg10 mi
7:15 PM7 °FPassing clouds.No wind63%30.24 "Hg10 mi
6:55 PM7 °FClear.No wind61%30.23 "Hg10 mi
6:15 PM7 °FClear.No wind61%30.21 "Hg10 mi
5:55 PM8 °FClear.3 mph58%30.20 "Hg10 mi
5:35 PM8 °FPassing clouds.6 mph57%30.19 "Hg10 mi
5:15 PM9 °FPartly sunny.5 mph56%30.19 "Hg10 mi
4:55 PM9 °FScattered clouds.7 mph58%30.19 "Hg10 mi
4:35 PM9 °FScattered clouds.6 mph56%30.17 "Hg10 mi
4:15 PM10 °FPartly sunny.7 mph53%30.16 "Hg10 mi
3:55 PM11 °FPartly sunny.5 mph51%30.16 "Hg10 mi
3:35 PM11 °FSunny.7 mph53%30.16 "Hg10 mi
3:15 PM10 °FSunny.7 mph54%30.15 "Hg10 mi
Weather by CustomWeather, © 2016

See weather overviewHow to use our weather pages